Location: Lower Halstow
(51.3667°N, 0.6667°E)
Time: 04:00:12
(UTC+00:00)

Daily predictions for brighter satellites

Satellite Brightness Start Highest point End
(mag) Time Altitude Azimuth Time Altitude Azimuth Time Altitude Azimuth
Cosmos 2219 Rocket 4.4 00:03:51 10° W 00:08:19 23° NW 00:12:47 10° NNE
ATLAS CENTAUR R/B 3.8 00:07:30 11° SW 00:13:05 80° SE 00:28:54 10° ENE
Cosmos 1825 3.8 00:13:02 16° SE 00:15:01 24° E 00:18:06 10° NE
Cosmos 1812 Rocket 4.0 00:12:57 10° NNW 00:17:10 48° W 00:19:25 25° SSW
Cosmos 990 Rocket 4.0 00:13:27 10° NNW 00:18:41 80° ENE 00:22:38 18° SSE
Cosmos 1408 3.2 00:19:18 25° SSE 00:21:00 45° E 00:24:33 10° NNE
SL-16 R/B 2.2 00:19:56 19° SSW 00:24:07 84° WNW 00:29:51 10° NNE
Cosmos 1656 Rocket 4.1 00:18:34 10° NNW 00:24:15 63° NE 00:29:52 10° SE
Cosmos 2221 3.9 00:20:51 10° N 00:24:47 33° ENE 00:28:23 11° SE
Cosmos 405 Rocket 3.8 00:23:36 21° SE 00:25:24 33° E 00:28:44 10° NNE
USA 229 DEB 3.9 00:22:35 22° S 00:26:41 52° ESE 00:33:18 10° NE
X-37B 2.8 00:28:46 13° ESE 00:28:46 13° ESE 00:29:23 10° ESE
USA 229 3.9 00:22:43 22° S 00:26:47 51° ESE 00:33:24 10° NE
Cosmos 2058 4.4 00:24:22 15° SE 00:26:51 27° E 00:30:19 10° NNE
Cosmos 2237 Rocket 3.5 00:22:08 10° WSW 00:27:21 37° NW 00:32:35 10° NNE
Cosmos 1898 Rocket 3.5 00:26:42 10° NNW 00:32:00 83° ENE 00:36:11 16° SSE
Cosmos 1937 Rocket 3.9 00:26:56 10° NNW 00:32:16 64° ENE 00:37:19 11° SE
Cosmos 2369 Rocket 2.2 00:28:40 10° NNW 00:34:25 80° WSW 00:38:58 17° SSE
NOSS 8 (F) 4.4 00:33:59 34° S 00:34:56 49° SE 00:37:49 10° NE
NOSS 3-1 (C) 3.3 00:31:11 19° SW 00:35:15 79° SE 00:41:45 10° NE
ATLAS 3B R/B 4.4 00:30:16 10° W 00:36:17 34° NNW 00:42:31 10° NE
SJ 16-02 2.4 00:34:16 10° NW 00:38:08 31° WSW 00:40:01 22° SW
FALCON 9 DEB 3.4 00:35:20 10° W 00:38:27 62° N 00:41:34 10° E
YAOGAN 11 4.4 00:35:34 18° SSE 00:38:51 68° ENE 00:43:21 10° N
Cosmos 1356 3.5 00:37:29 30° S 00:38:58 67° E 00:42:22 10° NNE
GP-B 3.9 00:35:03 10° N 00:39:14 41° W 00:41:51 20° SW
CREW DRAGON DEMO-1 DEB 3.9 00:40:05 23° ESE 00:40:05 23° ESE 00:41:28 10° E
NOSS 2-3 (E) 3.6 00:42:32 22° SW 00:45:11 77° SE 00:50:14 10° NE
USA 215 3.5 00:39:39 10° ENE 00:46:11 74° NNW 00:52:42 10° WSW
NOSS 3-1 (A) 3.5 00:42:41 22° SSW 00:46:16 59° SE 00:52:33 10° NE
Cosmos 2263 4.2 00:42:22 10° NNW 00:48:05 83° WSW 00:53:06 13° SSE
Cosmos 1825 Rocket 3.7 00:45:41 24° SSW 00:48:20 70° WNW 00:52:48 10° N
ATLAS 5 CENTAUR R/B 3.6 00:48:11 10° SE 00:49:49 12° ESE 00:51:32 10° E
CZ-4 R/B 4.2 00:45:56 10° NNE 00:50:30 53° E 00:53:33 20° S
Cosmos 1932 4.4 00:47:11 10° NW 00:53:24 74° SW 00:59:34 10° SSE
Meteor 2-2 Rocket 4.4 00:49:01 10° NNW 00:55:06 85° ENE 01:00:06 16° SSE
FALCON 9 DEB 3.1 00:52:28 10° WNW 00:55:34 68° N 00:58:39 10° E
CZ-3B R/B 3.4 00:43:51 10° W 00:56:23 64° N 00:59:55 10° E
Cosmos 1606 3.6 00:57:15 10° N 01:00:58 44° ENE 01:04:12 13° SE
NOSS 8 (H) 4.3 01:00:24 30° SSW 01:01:35 53° SE 01:04:29 10° NE
FALCON 9 DEB 3.2 00:59:13 10° WNW 01:02:21 66° N 01:05:27 10° E
Helios 1A 2.9 01:00:06 20° SSE 01:02:55 82° WSW 01:07:10 10° NNW
Cosmos 468 Rocket 4.0 01:00:57 21° SSW 01:04:28 86° ESE 01:09:45 10° NNE
FALCON 9 DEB 3.1 01:02:43 10° WNW 01:05:49 71° N 01:08:56 10° E
SL-16 R/B 2.9 01:00:44 10° SSE 01:06:51 64° ENE 01:12:57 10° NNW
Cosmos 372 Rocket 4.2 01:02:01 10° NNW 01:07:16 72° ENE 01:12:31 10° SSE
Cosmos 858 Rocket 4.5 01:04:22 10° NNW 01:09:40 73° WSW 01:14:05 15° SSE
USA 305 4.4 01:10:32 17° SSE 01:12:03 21° SE 01:15:16 10° E
USA 290 4.4 01:11:15 12° SE 01:13:04 18° ESE 01:15:21 10° ENE
Cosmos 1953 Rocket 3.8 01:10:29 21° SSW 01:13:16 59° WNW 01:17:40 10° N
Lacrosse 4 Rocket 2.0 01:09:24 10° NNW 01:13:30 57° NE 01:17:29 10° SE
CENTAUR R/B 4.5 01:09:33 10° NW 01:16:38 42° NNE 01:24:41 10° E
Cosmos 2098 Rocket 3.5 01:15:08 17° S 01:19:13 72° E 01:23:31 10° NNE
Cosmos 1763 Rocket 3.5 01:15:44 19° SSW 01:19:26 76° WNW 01:24:36 10° NNE
BREEZE-M R/B 4.1 01:18:11 16° SSE 01:19:28 19° SE 01:22:45 10° E
Cosmos 1437 Rocket 2.9 01:16:11 10° NNW 01:20:01 56° W 01:22:18 21° S
Resurs 1-4 Rocket 2.7 01:14:50 10° NNE 01:20:01 50° E 01:24:23 14° S
USA 267 4.3 01:19:19 17° SSW 01:22:21 24° SW 01:27:28 10° WNW
Cosmos 1892 4.0 01:21:02 16° SW 01:23:28 31° WNW 01:26:59 10° N
SL-4 R/B 1.7 01:21:06 10° W 01:24:54 84° N 01:28:28 10° E
NOSS 2-3 (D) 4.1 01:22:26 13° WSW 01:26:13 63° NW 01:31:23 10° NE
Cosmos 1943 Rocket 3.7 01:23:16 10° WNW 01:27:00 19° W 01:29:31 14° SW
Cosmos 1842 Rocket 3.6 01:25:47 10° NNW 01:30:06 62° W 01:33:15 18° S
NPP 4.3 01:25:56 10° NNE 01:31:11 50° E 01:35:57 12° S
ADEOS II 3.5 01:26:49 10° NNE 01:31:31 31° E 01:36:09 10° SSE
Meteor 2-8 Rocket 4.5 01:27:20 10° NNW 01:33:27 72° W 01:38:53 14° S
Lacrosse 5 rocket 2.5 01:30:12 10° WNW 01:33:37 41° NNE 01:37:05 10° E
USA 306 4.0 01:32:05 18° S 01:34:18 28° SE 01:37:57 10° E
FALCON 9 DEB 3.3 01:31:55 10° WNW 01:35:12 46° SSW 01:38:28 10° SE
Cosmos 921 Rocket 3.2 01:32:38 18° S 01:35:39 62° ESE 01:39:47 10° NNE
Exosat Rocket 3.9 01:30:27 15° SW 01:35:42 70° WNW 01:40:51 10° NNE
Cosmos 1943 3.2 01:33:25 17° SSW 01:37:53 86° WNW 01:43:36 10° NNE
CZ-2D R/B 2.3 01:33:35 10° NNE 01:38:48 67° ESE 01:43:15 14° S
MOZ.5/SAFIR/RUBIN 5/SL-8 4.2 01:38:06 17° SSW 01:41:31 46° W 01:46:08 10° NNW
IDEFIX/ARIANE 42P 4.4 01:41:33 10° NE 01:45:46 24° E 01:49:57 10° SE
Cosmos 1603 3.8 01:41:52 15° SW 01:46:37 74° WNW 01:52:18 10° NNE
Cosmos 2151 3.6 01:44:56 12° S 01:48:43 52° E 01:52:49 10° NNE
Cosmos 1825 3.3 01:47:48 15° SW 01:50:22 31° WNW 01:53:47 10° N
AQUA 4.3 01:46:08 10° NNE 01:50:52 58° E 01:55:17 12° S
Cosmos 1076 Rocket 3.4 01:49:45 16° SSW 01:53:09 84° W 01:57:26 10° N
Cosmos 1437 2.5 01:51:15 10° NNW 01:54:00 54° W 01:55:51 18° S
Cosmos 1242 Rocket 3.3 01:54:21 10° NNW 01:57:40 35° W 02:00:05 16° SSW
Cosmos 540 Rocket 3.7 01:55:00 14° SW 01:59:18 63° WNW 02:04:24 10° NNE
Cosmos 405 Rocket 4.3 01:58:43 11° WSW 02:01:26 22° WNW 02:04:25 10° NNW
Cosmos 2221 3.6 01:58:33 10° NNW 02:02:16 29° W 02:05:13 14° SW
X-37B 1.8 02:01:04 15° SW 02:02:53 23° S 02:05:30 10° SE
Cosmos 2058 4.0 02:00:33 14° SW 02:03:39 33° WNW 02:07:23 10° N
BREEZE-M DEB (TANK) 1.4 02:02:47 10° W 02:05:26 51° S 02:07:41 10° ESE
IRS-1D 4.4 02:00:39 10° NNE 02:05:36 45° E 02:10:26 10° S
Cosmos 841 Rocket 3.7 02:03:07 13° SW 02:07:37 63° WNW 02:12:45 10° NNE
Cosmos 1553 Rocket 4.2 02:02:39 10° N 02:09:01 77° E 02:15:14 10° SSE
SL-16 R/B 4.1 02:04:38 10° W 02:09:06 23° NW 02:13:35 10° NNE
NOSS 2-2 (E) 3.1 02:08:02 15° SSW 02:10:50 70° SE 02:14:46 10° NE
CREW DRAGON DEMO-1 DEB 2.1 02:10:21 10° W 02:12:48 90° N 02:15:15 10° E
Cosmos 2292 Rocket 3.5 02:10:02 10° S 02:12:53 45° E 02:15:48 10° NNE
FALCON 9 DEB 2.8 02:11:06 10° WNW 02:14:14 68° SSW 02:17:21 10° ESE
Cosmos 1782 3.2 02:11:44 10° N 02:15:44 65° ENE 02:19:42 10° SSE
Cosmos 2369 Rocket 3.9 02:14:21 10° WNW 02:17:32 15° W 02:20:42 10° SW
Cosmos 1271 Rocket 3.7 02:13:59 10° N 02:17:36 45° ENE 02:21:13 10° SSE
USA 229 DEB 4.3 02:11:17 10° WSW 02:17:41 53° NNW 02:24:35 10° NE
USA 229 4.3 02:11:23 10° WSW 02:17:47 54° NNW 02:24:42 10° NE
USA 307 3.3 02:14:12 13° SW 02:17:49 48° SSE 02:21:55 10° ENE
USA 281 3.5 02:12:48 10° SE 02:19:21 76° ENE 02:25:57 10° NNW
Cosmos 2026 Rocket 4.1 02:16:00 10° SSW 02:22:11 73° WNW 02:28:35 10° N
Aureole 3 Rocket 4.0 02:20:35 10° NNW 02:24:03 33° W 02:28:33 10° SSW
NOSS 2-2 (C) 3.1 02:21:26 13° SW 02:24:30 73° SE 02:28:22 10° NE
CZ-4C R/B 3.7 02:23:03 10° SSE 02:26:27 56° ENE 02:29:52 10° N
Helios 1B rocket 2.7 02:22:30 10° N 02:26:32 56° WNW 02:30:26 11° SSW
ERBS 4.3 02:25:04 10° S 02:27:16 17° SE 02:29:29 10° E
USA 215 4.1 02:22:33 10° ENE 02:28:53 55° N 02:35:14 10° WNW
Cosmos 1328 Rocket 4.0 02:25:22 10° N 02:29:42 64° ENE 02:34:03 10° SSE
NOSS 3-2 (A) 4.3 02:22:29 10° NW 02:29:45 77° NE 02:38:09 10° SE
Cosmos 1633 3.5 02:27:25 11° SW 02:30:26 34° WNW 02:33:43 10° N
FALCON 9 DEB 3.2 02:28:09 10° W 02:31:06 42° SSW 02:34:02 10° SE
SL-19 R/B 4.2 02:25:53 10° NNE 02:31:08 77° WNW 02:36:33 10° SSW
Cosmos 2298 Rocket 4.2 02:27:17 10° NNW 02:32:30 55° WSW 02:37:41 10° S
ATLAS 5 CENTAUR R/B 1.5 02:29:34 11° SW 02:33:27 84° SE 02:38:04 10° NE
USA 308 3.1 02:29:31 10° SW 02:33:42 58° SSE 02:37:53 10° ENE
SeaSat 1 3.8 02:30:44 10° NE 02:35:10 32° ESE 02:39:34 10° S
Cosmos 1606 4.5 02:33:42 10° NW 02:36:20 18° W 02:38:56 10° SW
Cosmos 1814 Rocket 4.4 02:32:08 10° SW 02:37:14 54° WNW 02:42:18 10° NNE
NOSS 3-1 (A) 4.4 02:31:54 10° W 02:37:25 45° NNW 02:43:59 10° NE
FALCON 9 DEB 3.1 02:34:58 10° WNW 02:38:00 46° SSW 02:41:01 10° SE
FALCON 9 DEB 3.3 02:38:26 10° W 02:41:21 38° SSW 02:44:15 10° SE
ADEOS Rocket 3.5 02:35:17 10° S 02:42:23 56° W 02:48:49 10° NNW
Cosmos 1933 4.0 02:39:03 10° NNW 02:42:53 39° W 02:46:43 10° SSW
IRIDIUM 104 4.4 02:38:05 10° N 02:43:17 67° W 02:48:27 10° S
Cosmos 2150 Rocket 4.3 02:39:03 10° NW 02:44:01 48° WSW 02:49:02 10° S
USA 290 3.3 02:44:16 10° SW 02:47:15 34° WNW 02:50:16 10° N
Meteor 1-28 Rocket 3.6 02:47:10 10° S 02:50:50 46° W 02:54:32 10° NNW
SL-16 R/B 3.5 02:45:41 10° SSW 02:50:54 28° W 02:56:08 10° NW
USA 305 2.9 02:47:14 10° WSW 02:51:29 75° SSE 02:55:44 10° ENE
Lacrosse 4 Rocket 2.8 02:48:47 10° WNW 02:51:46 20° WSW 02:54:44 10° SSW
DELTA 2 DEB (DPAF) 4.5 02:47:34 10° S 02:51:51 47° W 02:56:10 10° NNW
Cosmos 1125 Rocket 3.8 02:46:52 10° NNW 02:51:56 50° WSW 02:57:00 10° S
Cosmos 1151 Rocket 3.1 02:49:09 10° NNW 02:53:22 60° W 02:57:33 10° S
Cosmos 2266 Rocket 4.2 02:51:51 10° S 02:57:54 73° E 03:03:57 10° NNE
